Left ArrowRight Arrow

33.98154, -81.23621

Hourly Observations for December 18, 2018

Temp ( °F °C ) Dew Point ( °F °C ) Humidity (%) Winds ( mph kmh ) Pressure ( in mb ) Visibility ( mi km ) Precip ( " mm )
12:56 am 00:56 Clear 37 2.8 37 2.8 100 100 Calm 30.03 1017 10 16 0.00 0.00
1:56 am 01:56 Clear 34 1.1 34 1.1 100 100 Calm 30.04 1017 10 16 0.00 0.00
2:56 am 02:56 Clear 34 1.1 34 1.1 100 100 Calm 30.03 1017 10 16 0.00 0.00
3:56 am 03:56 Clear 36 2.2 35 1.7 97 97 Calm 30.03 1017 10 16 0.00 0.00
4:56 am 04:56 Clear 33 0.6 33 0.6 100 100 Calm 30.04 1017 10 16 0.00 0.00
5:56 am 05:56 Clear 32 0 32 0 100 100 W 3 6 30.05 1018 10 16 0.00 0.00
6:56 am 06:56 Mostly Clear 33 0.6 33 0.6 100 100 Calm 30.08 1019 10 16 0.00 0.00
7:56 am 07:56 Partly Cloudy with Patchy Fog 32 0 32 0 100 100 S 3 6 30.11 1020 10 16 0.00 0.00
8:56 am 08:56 Partly Cloudy with Patchy Fog 40 4.4 37 2.8 89 89 Calm 30.13 1020 10 16 0.00 0.00
9:56 am 09:56 Partly Cloudy with Patchy Fog 49 9.4 40 4.4 71 71 E 3 6 30.16 1021 10 16 0.00 0.00
10:56 am 10:56 Mostly Sunny 54 12.2 34 1.1 47 47 ENE 10 17 30.16 1021 10 16 0.00 0.00
11:56 am 11:56 Mostly Sunny 56 13.3 33 0.6 42 42 ENE 10 17 30.14 1021 10 16 0.00 0.00
12:56 pm 12:56 Mostly Sunny 59 15 33 0.6 38 38 E 6 9 30.12 1020 10 16 0.00 0.00
1:56 pm 13:56 Mostly Sunny 59 15 32 0 36 36 ESE 5 7 30.10 1019 10 16 0.00 0.00
3:56 pm 15:56 Partly Cloudy 60 15.6 34 1.1 38 38 E 7 11 30.07 1018 10 16 0.00 0.00
4:56 pm 16:56 Mostly Cloudy 56 13.3 36 2.2 47 47 E 7 11 30.07 1018 10 16 0.00 0.00
5:56 pm 17:56 Partly Cloudy 54 12.2 38 3.3 55 55 NE 5 7 30.09 1019 10 16 0.00 0.00
6:56 pm 18:56 Partly Cloudy 45 7.2 40 4.4 83 83 W 3 6 30.13 1020 10 16 0.00 0.00
7:56 pm 19:56 Partly Cloudy 41 5 39 3.9 93 93 Calm 30.14 1021 10 16 0.00 0.00
8:56 pm 20:56 Partly Cloudy 41 5 39 3.9 93 93 Calm 30.16 1021 10 16 0.00 0.00
9:56 pm 21:56 Mostly Clear 40 4.4 39 3.9 97 97 Calm 30.17 1022 10 16 0.00 0.00
10:56 pm 22:56 Partly Cloudy 38 3.3 38 3.3 100 100 Calm 30.17 1022 10 16 0.00 0.00
11:56 pm 23:56 Partly Cloudy 38 3.3 37 2.8 97 97 Calm 30.16 1022 10 16 0.00 0.00

Powered by Vaisala Xweather